Weather History for Palacios, TX

Change the Weather History Date:

Monday, February 21, 2011

  Actual Average Record
Temperature  
Mean Temperature 68 °F -  
Max Temperature 73 °F 68 °F 82 °F (1980)
Min Temperature 64 °F 48 °F 31 °F (1964)
Cooling Degree Days 4    
Growing Degree Days 18 (Base 50)    
Moisture  
Dew Point 66 °F    
Average Humidity 91    
Maximum Humidity 100    
Minimum Humidity 73    
Precipitation  
Precipitation 0.05 in - - ()
Sea Level Pressure  
Sea Level Pressure 29.84 in    
Wind  
Wind Speed 11 mph (SE)    
Max Wind Speed 18 mph    
Max Gust Speed 25 mph    
Visibility 6 miles    
Events Rain    
Averages and records for this station are not official NWS values.
T = Trace of Precipitation, MM = Missing Value Source: NWS Daily Summary

Daily Weather History Graph

Daily Weather History Graph

Search for Another Location

Airport:

Trip Planner

Search our weather history database for the weather conditions in past years. The results will help you decide how hot, cold, wet, or windy it might be!

Date:

Astronomy

Feb. 21, 2011 Rise Set
Actual Time 6:58 AM CST 6:19 PM CST
Civil Twilight 6:34 AM CST 6:43 PM CST
Nautical Twilight 6:06 AM CST 7:10 PM CST
Astronomical Twilight 5:39 AM CST 7:38 PM CST
Moon 10:24 PM CST (2/21) 8:54 AM CST (2/21)
Length of Visible Light 12h 09m
Length of Day
11h 21m
Waning Gibbous, 84% of the Moon is Illuminated
Feb 21
Waning Gibbous
Feb 24
Last Quarter
Mar 4
New
Mar 12
First Quarter
Mar 19
Full

Hourly Weather History & Observations

Time (CST) Temp. Dew Point Humidity Pressure Visibility Wind Dir Wind Speed Gust Speed Precip Events Conditions
12:53 AM 66.0 °F 64.9 °F 96% 29.83 in 6.0 mi SSE 12.7 mph - N/A   Clear
1:53 AM 66.9 °F 64.9 °F 93% 29.81 in 6.0 mi South 13.8 mph - N/A   Clear
2:53 AM 66.0 °F 64.0 °F 93% 29.81 in 6.0 mi South 10.4 mph - N/A   Clear
3:53 AM 66.0 °F 64.0 °F 93% 29.79 in 6.0 mi SSE 12.7 mph - N/A   Clear
4:53 AM 64.9 °F 64.0 °F 97% 29.79 in 6.0 mi SSE 11.5 mph - N/A   Clear
5:53 AM 64.9 °F 63.0 °F 93% 29.78 in 6.0 mi SSE 10.4 mph - N/A   Clear
6:53 AM 64.9 °F 63.0 °F 93% 29.80 in 6.0 mi SSE 10.4 mph - N/A   Clear
7:53 AM 66.0 °F 64.0 °F 93% 29.81 in 5.0 mi SSE 11.5 mph - N/A   Clear
8:53 AM 69.1 °F 66.0 °F 90% 29.84 in 7.0 mi SSE 13.8 mph - N/A   Clear
9:53 AM 72.0 °F 66.0 °F 81% 29.85 in 9.0 mi SSE 18.4 mph 25.3 mph N/A   Clear
10:53 AM 73.4 °F 66.2 °F 78% 29.86 in 10.0 mi South 17.3 mph - N/A   Clear
11:53 AM 73.9 °F 66.0 °F 76% 29.87 in 10.0 mi South 15.0 mph - N/A   Clear
12:53 PM 73.9 °F 64.9 °F 73% 29.86 in 10.0 mi SSE 13.8 mph 19.6 mph N/A   Clear
1:53 PM 73.9 °F 64.9 °F 73% 29.83 in 10.0 mi South 13.8 mph 19.6 mph N/A   Clear
2:53 PM 73.9 °F 66.0 °F 76% 29.82 in 10.0 mi SSE 10.4 mph - N/A   Clear
3:53 PM 71.1 °F 66.0 °F 84% 29.82 in 10.0 mi SE 11.5 mph - N/A   Clear
4:48 PM 69.8 °F 68.0 °F 94% 29.81 in 2.0 mi ESE 6.9 mph - 0.00 in Rain Light Rain
4:53 PM 69.1 °F 68.0 °F 96% 29.82 in 1.8 mi ESE 6.9 mph - 0.00 in Rain Light Rain
4:59 PM 69.8 °F 68.0 °F 94% 29.82 in 1.2 mi SE 8.1 mph - 0.02 in Rain Rain
5:09 PM 69.8 °F 68.0 °F 94% 29.82 in 2.0 mi Calm Calm - 0.02 in Rain Light Rain
5:31 PM 69.8 °F 68.0 °F 94% 29.82 in 3.0 mi ESE 4.6 mph - 0.03 in Rain Light Rain
5:40 PM 69.8 °F 68.0 °F 94% 29.82 in 2.5 mi SE 8.1 mph - 0.04 in Rain Light Rain
5:53 PM 69.1 °F 68.0 °F 96% 29.82 in 2.5 mi South 6.9 mph - 0.05 in Rain Rain
6:03 PM 69.8 °F 66.2 °F 88% 29.82 in 5.0 mi SE 12.7 mph - 0.00 in Rain Light Rain
6:12 PM 69.8 °F 66.2 °F 88% 29.82 in 5.0 mi SSE 9.2 mph - 0.00 in   Scattered Clouds
6:21 PM 69.8 °F 66.2 °F 88% 29.83 in 6.0 mi SSE 5.8 mph - 0.00 in   Mostly Cloudy
6:50 PM 68.0 °F 66.2 °F 94% 29.83 in 6.0 mi SE 9.2 mph - 0.00 in   Partly Cloudy
6:53 PM 68.0 °F 66.9 °F 96% 29.83 in 6.0 mi SE 8.1 mph - 0.00 in   Partly Cloudy
7:53 PM 68.0 °F 66.9 °F 96% 29.86 in 6.0 mi ESE 6.9 mph - N/A   Clear
8:03 PM 68.0 °F 66.2 °F 94% 29.86 in 6.0 mi ESE 8.1 mph - N/A   Partly Cloudy
8:53 PM 68.0 °F 68.0 °F 100% 29.88 in 5.0 mi ESE 8.1 mph - N/A   Partly Cloudy
9:49 PM 69.8 °F 68.0 °F 94% 29.89 in 5.0 mi SE 9.2 mph - N/A   Mostly Cloudy
9:53 PM 69.1 °F 68.0 °F 96% 29.89 in 5.0 mi SE 9.2 mph - N/A   Mostly Cloudy
10:48 PM 69.8 °F 68.0 °F 94% 29.90 in 4.0 mi SE 10.4 mph - N/A   Overcast
10:53 PM 68.0 °F 68.0 °F 100% 29.90 in 4.0 mi SE 10.4 mph - N/A   Overcast
11:53 PM 69.1 °F 68.0 °F 96% 29.90 in 2.0 mi SE 10.4 mph - N/A   Overcast